ONEWEB-0118

Last updated on Mon Jan 18 2021 00:02:03 GMT+0000 (Coordinated Universal Time)

1 47264U 20100G 21017.58334491 -.01466716 00000-0 -77295-1 0 9998 2 47264 87.4444 29.0209 0012747 154.2346 337.7281 15.18612255 1901

Satellite not in orbit

ONEWEB-0118